Regional Weather Roundup
Issued by NWS Albany, NY

Home | Current Version | Previous Version | Text Only | Print | Product List | Glossary On
Versions: 1 2 3 4 5 6 7 8 9 10 11 12 13 14 15 16 17 18 19 20 21 22 23 24 25 26 27 28 29 30 31 32 33 34 35 36 37 38 39 40 41 42 43 44 45 46 47 48 49 50
000
ASUS41 KALY 052210
RWRALY

NEW YORK STATE HOURLY WEATHER ROUNDUP
NATIONAL WEATHER SERVICE ALBANY NY
600 PM EDT SUN JUL 05 2015

NOTE: "FAIR" INDICATES FEW OR NO CLOUDS BELOW 12,000 FEET WITH NO
SIGNIFICANT WEATHER AND/OR NO OBSTRUCTIONS TO VISIBILITY.

NYZ032-033-038>043-046>054-057>066-NYZ062>081-052300-
EAST


CITY           SKY/WX    TMP DP  RH WIND       PRES   REMARKS
ALBANY         MOSUNNY   81  58  45 W8        30.08S
GLENS FALLS    MOSUNNY   80  63  55 SE5       30.06F
POUGHKEEPSIE   MOSUNNY   82  60  47 SW6       30.09R
NEWBURGH       MOSUNNY   81  63  54 SW7       30.12R
MONTGOMERY     MOSUNNY   81  62  52 S8        30.10R
WHITE PLAINS   MOSUNNY   82  60  47 N3        30.10S
ISLIP          PTSUNNY   77  63  61 SW12      30.10S
NEW YORK CITY  PTSUNNY   81  62  52 S12       30.09R
CENTRAL PARK   SUNNY     81  62  52 VRB3      30.12S
$$

NYZ005>009-017-018-044>046-055-056-052300-
CENTRAL


CITY           SKY/WX    TMP DP  RH WIND       PRES   REMARKS
FULTON         SUNNY     76  58  53 W5        30.12S
SYRACUSE       MOSUNNY   78  56  46 NW8       30.10F
ROME           MOSUNNY   77  57  50 SW8       30.11F
ELMIRA         SUNNY     81  59  47 N7        30.12F
BINGHAMTON     SUNNY     76  52  43 NW6       30.16S
MONTICELLO     SUNNY     77  55  47 W8        30.16S
$$

NYZ026>034-041>043-052300-
NORTH


CITY           SKY/WX    TMP DP  RH WIND       PRES   REMARKS
WATERTOWN      SUNNY     72  59  63 W7        30.10F
FORT DRUM      NOT AVBL
MASSENA        SUNNY     79  58  48 W6        30.07F
SARANAC LAKE   SUNNY     74  53  48 VRB6      30.12S
PLATTSBURGH    MOSUNNY   77  61  57 E3        30.06S
$$

NYZ001>004-010>016-019>021-052300-
WEST


CITY           SKY/WX    TMP DP  RH WIND       PRES   REMARKS
NIAGARA FALLS  PTSUNNY   78  57  48 SW10      30.10F
BUFFALO        PTSUNNY   80  55  42 W7        30.11F
DUNKIRK        MOSUNNY   75  55  49 N5        30.12F
JAMESTOWN      MOSUNNY   75  54  46 E3        30.16S
WELLSVILLE     SUNNY     76  53  44 CALM      30.18F
ROCHESTER      MOSUNNY   80  61  52 SE5       30.11F
PENN YAN       SUNNY     78  60  53 E5        30.13F
$$

             KEY
       WCI = WIND CHILL INDEX
       VSB = VISIBILITY
       HX  = HEAT INDEX
$$


USA.gov is the U.S. government's official web portal to all federal, state and local government web resources and services.